Asheville, NC

1:42 AM EST on November 23, 2017 (GMT -0500)
Asheville Regional

Weather History for KAVL - June, 2012

Change the Weather History Date:

Wednesday, June 13, 2012

  Actual Average Record
Temperature  
Mean Temperature 74 °F 70 °F  
Max Temperature 84 °F 81 °F 91 °F (1894)
Min Temperature 64 °F 59 °F 43 °F (1903)
Degree Days  
Heating Degree Days 0 0  
Month to date heating degree days 9 11  
Since 1 June heating degree days 9 11  
Since 1 July heating degree days 3309 4192  
Cooling Degree Days 9 6  
Month to date cooling degree days 38 60  
Year to date cooling degree days 162 118  
Since 1 June cooling degree days 38 60  
Growing Degree Days 24 (Base 50)    
Moisture  
Dew Point 62 °F    
Average Humidity 68    
Maximum Humidity 93    
Minimum Humidity 42    
Precipitation  
Precipitation 0.00 in 0.17 in 1.46 in (1910)
Month to date precipitation 0.45 1.94  
Year to date precipitation 19.09 20.19  
Snow  
Snow 0.00 in 0.00 in 0.00 in ()
Month to date snowfall 0.0 0.0  
Since 1 June snowfall 0.0 0.0  
Since 1 July snowfall T 9.9  
Snow Depth 0.00 in    
Sea Level Pressure  
Sea Level Pressure 29.97 in    
Wind  
Wind Speed 6 mph (North)    
Max Wind Speed 17 mph    
Max Gust Speed 22 mph    
Visibility 10 miles    
Events      
T = Trace of Precipitation, MM = Missing Value Source: NWS Daily Summary

Daily Weather History Graph

Daily Weather History Graph

Search for Another Location

Airport or City:

Trip Planner

Search our weather history database for the weather conditions in past years. The results will help you decide how hot, cold, wet, or windy it might be!

Date:

Astronomy

Jun. 13, 2012 Rise Set
Actual Time 6:14 AM EDT 8:46 PM EDT
Civil Twilight 5:44 AM EDT 9:16 PM EDT
Nautical Twilight 5:07 AM EDT 9:53 PM EDT
Astronomical Twilight 4:26 AM EDT 10:34 PM EDT
Moon 2:18 AM EDT (6/13) 3:39 PM EDT (6/13)
Length of Visible Light 15h 31m
Length of Day
14h 32m
Waning Crescent, 29% of the Moon is Illuminated
Jun 13
Waning Crescent
Jun 19
New
Jun 26
First Quarter
Jul 3
Full
Jul 10
Last Quarter

Hourly Weather History & Observations

Time (EDT) Temp. Heat Index Dew Point Humidity Pressure Visibility Wind Dir Wind Speed Gust Speed Precip Events Conditions
12:54 AM 68.0 °F - 63.0 °F 84% 29.96 in 10.0 mi NNW 5.8 mph - N/A   Clear
1:54 AM 68.0 °F - 62.1 °F 81% 29.96 in 10.0 mi North 8.1 mph - N/A   Clear
2:54 AM 68.0 °F - 62.1 °F 81% 29.95 in 10.0 mi North 8.1 mph - N/A   Clear
3:54 AM 66.9 °F - 62.1 °F 84% 29.95 in 10.0 mi North 4.6 mph - N/A   Clear
4:54 AM 66.9 °F - 62.1 °F 84% 29.96 in 10.0 mi North 4.6 mph - N/A   Clear
5:54 AM 66.0 °F - 62.1 °F 87% 29.96 in 10.0 mi NNE 3.5 mph - N/A   Clear
6:54 AM 64.9 °F - 62.1 °F 90% 29.96 in 9.0 mi North 6.9 mph - N/A   Clear
7:54 AM 70.0 °F - 63.0 °F 78% 29.96 in 10.0 mi Variable 3.5 mph - N/A   Clear
8:54 AM 72.0 °F - 64.0 °F 76% 29.97 in 10.0 mi North 6.9 mph - N/A   Clear
9:54 AM 73.9 °F - 63.0 °F 68% 29.97 in 10.0 mi NNW 10.4 mph - N/A   Clear
10:54 AM 77.0 °F - 62.1 °F 60% 29.97 in 10.0 mi North 10.4 mph - N/A   Clear
11:54 AM 79.0 °F - 62.1 °F 56% 29.98 in 10.0 mi North 8.1 mph - N/A   Clear
12:54 PM 80.1 °F 81.1 °F 61.0 °F 52% 29.99 in 10.0 mi NNW 10.4 mph - N/A   Mostly Cloudy
1:54 PM 80.1 °F 80.2 °F 55.9 °F 43% 29.96 in 10.0 mi NNW 11.5 mph - N/A   Scattered Clouds
2:54 PM 80.1 °F 81.1 °F 61.0 °F 52% 29.96 in 10.0 mi NNW 15.0 mph 21.9 mph N/A   Partly Cloudy
3:54 PM 80.1 °F 81.1 °F 61.0 °F 52% 29.96 in 10.0 mi NNW 5.8 mph - N/A   Clear
4:54 PM 79.0 °F - 64.9 °F 62% 29.94 in 10.0 mi South 8.1 mph - N/A   Mostly Cloudy
5:54 PM 80.1 °F 81.9 °F 64.9 °F 60% 29.95 in 10.0 mi Variable 6.9 mph - N/A   Mostly Cloudy
6:54 PM 78.1 °F - 63.0 °F 60% 29.95 in 10.0 mi Variable 3.5 mph - N/A   Mostly Cloudy
7:54 PM 77.0 °F - 64.0 °F 64% 29.96 in 10.0 mi Calm Calm - N/A   Mostly Cloudy
8:54 PM 73.9 °F - 64.9 °F 73% 29.97 in 10.0 mi Calm Calm - N/A   Partly Cloudy
9:54 PM 70.0 °F - 64.9 °F 84% 29.99 in 10.0 mi Calm Calm - N/A   Clear
10:54 PM 69.1 °F - 64.0 °F 84% 30.01 in 10.0 mi Calm Calm - N/A   Clear
11:54 PM 64.9 °F - 61.0 °F 87% 30.01 in 10.0 mi Calm Calm - N/A   Partly Cloudy